Location: Vigo di Fassa
(46.4167°N, 11.6667°E)
Time: 20:59:19
(UTC+00:00)

Cosmos 1515 - Pass Details

Date: 03 March 2021
Orbit: 504 x 516 km, 82.5° (Epoch: 20 April)

Event Time Altitude Azimuth Distance (km) Brightness Sun altitude
Rises 17:54:06 0° 351° (N) 2,647 7.4 -9.7°
Reaches altitude 10° 17:56:15 10° 352° (N) 1,754 6.5 -10.1°
Maximum altitude 18:00:06 85° 78° (ENE) 523 3.6 -10.7°
Drops below altitude 10° 18:03:55 10° 171° (S) 1,732 6.2 -11.4°
Sets 18:06:02 0° 171° (S) 2,611 7.2 -11.8°
